Volver al catálogo

ONEWEB-0116

ActivoComunicacionesPO
NORAD 48046·PAYLOAD·🇬🇧 United Kingdom

Lanzado Mar 25, 2021 desde Vostochny Cosmodrome

Loading…

Próximos Pases (próximas 24 horas)

TLE

ActualizadoSource: CelesTrak SupGP

Época: Sep 14, 2026, 13:56 UTC

1 48046C 21025E   26257.58104583  .00001897  00000+0  52017-2 0  2576
2 48046  87.8935 302.4390 0002058  94.7702   8.9791 13.13472357    10

Sigue ONEWEB-0116 en tiempo real con AllMySat

Download on the App Store